Flag for U.S.A. Weather past 2 weeks in Arlington, Texas, U.S.A.

72 °F

Thundershowers. Mostly cloudy.

Feels Like: 72 °F
Forecast: 43 / 70 °F
Wind: 10 mph from South

Location: Arlington Municipal Airport

Current Time: Nov 26, 2015 at 11:18:05 PM

Latest Report: Nov 26, 2015 at 9:53 PM

Visibility: 7 mi

Pressure: 30.07 "Hg

Humidity: 81%

Dew point: 66 °F

Location of ArlingtonLocation

Historic Weather in Arlington — Graph


Arlington temperature yesterday

Maximum temperature yesterday: 77 °F (at 1:53 PM)
Minimum temperature yesterday: 63 °F (at 1:53 AM)
Average temperature yesterday: 68 °F

Past Weeks' High & Low Weather Summary

High77 °F (Nov 17, 1:53 AM)87% (Nov 16, 7:53 AM)30.37 "Hg (Nov 16, 7:53 AM)
Low31 °F (Nov 22, 5:53 AM)20% (Nov 11, 9:53 PM)29.48 "Hg (Nov 17, 2:53 AM)
Average59 °F59%30.08 "Hg
* Reported Nov 11 9:53 PM — Nov 26 9:01 PM, Arlington, Weather by CustomWeather, © 2015

Note: Actual official high and low records may vary slightly from our data, if they occured in-between our weather recording intervals... More about our weather records


Arlington weather history for previous 24 hours

Time TempWeatherWind HumidityBarometerVisibility
9:01 PM
Thu, Nov 26
72 °FHeavy rain. Mostly cloudy.17 mph81%30.08 "Hg3 mi
7:53 PM72 °FRain. Low clouds.8 mph81%30.07 "Hg3 mi
6:53 PM72 °FLight rain. Mostly cloudy.10 mph78%30.06 "Hg10 mi
5:53 PM72 °FOvercast.10 mph81%30.06 "Hg10 mi
4:53 PM71 °FLight rain. Mostly cloudy.12 mph81%30.04 "Hg5 mi
3:53 PM72 °FLight rain. Mostly cloudy.16 mph78%30.03 "Hg10 mi
3:04 PM71 °FLight rain. Overcast.14 mph81%30.06 "Hg8 mi
2:53 PM71 °FRain. More clouds than sun.14 mph81%30.05 "Hg8 mi
1:53 PM71 °FRain. Mostly cloudy.12 mph78%30.06 "Hg4 mi
12:53 PM74 °FLight rain. Mostly cloudy.14 mph67%30.09 "Hg10 mi
11:53 AM74 °FOvercast.16 mph67%30.11 "Hg10 mi
10:53 AM72 °FOvercast.18 mph71%30.14 "Hg10 mi
9:53 AM71 °FOvercast.16 mph73%30.14 "Hg10 mi
8:53 AM70 °FOvercast.18 mph76%30.13 "Hg10 mi
7:53 AM69 °FLow clouds.16 mph79%30.12 "Hg10 mi
6:53 AM69 °FLow clouds.17 mph79%30.10 "Hg10 mi
5:53 AM68 °FLow clouds.16 mph78%30.09 "Hg10 mi
5:00 AM68 °FLow clouds.14 mph78%30.11 "Hg10 mi
3:53 AM69 °FOvercast.12 mph76%30.09 "Hg10 mi
2:53 AM69 °FOvercast.13 mph73%30.09 "Hg10 mi
1:53 AM69 °FOvercast.13 mph73%30.08 "Hg10 mi
12:53 AM70 °FOvercast.14 mph71%30.08 "Hg10 mi
11:53 PM
Wed, Nov 25
70 °FOvercast.12 mph71%30.08 "Hg10 mi
Weather by CustomWeather, © 2015

See weather overviewHow to use our weather pages